Time,TemperatureF,DewpointF,PressureIn,WindDirection,WindDirectionDegrees,WindSpeedMPH,WindSpeedGustMPH,Humidity,HourlyPrecipIn,Conditions,Clouds,dailyrainin,SolarRadiationWatts/m^2,SoftwareType,DateUTC
2013-06-03 00:03:00,61.0,18.0,-100.00,North,4,6.0,17.0,19,0.00,,,0.00,0.000000,,2013-06-03 10:03:00,
2013-06-03 00:12:00,61.0,18.0,-100.00,North,4,6.0,17.0,19,0.00,,,0.00,0.000000,,2013-06-03 10:12:00,
2013-06-03 00:22:00,61.0,18.0,-100.00,North,4,6.0,17.0,19,0.00,,,0.00,0.000000,,2013-06-03 10:22:00,
2013-06-03 00:32:00,61.0,18.0,-100.00,North,4,6.0,17.0,19,0.00,,,0.00,0.000000,,2013-06-03 10:32:00,
2013-06-03 00:52:00,54.0,42.0,-100.00,NNE,25,10.0,18.0,64,0.00,,,0.00,0.000000,,2013-06-03 10:52:00,
2013-06-03 01:02:00,54.0,42.0,-100.00,NNE,25,10.0,18.0,64,0.00,,,0.00,0.000000,,2013-06-03 11:02:00,
2013-06-03 01:12:00,54.0,42.0,-100.00,NNE,25,10.0,18.0,64,0.00,,,0.00,0.000000,,2013-06-03 11:12:00,
2013-06-03 01:22:00,54.0,42.0,-100.00,NNE,25,10.0,18.0,64,0.00,,,0.00,0.000000,,2013-06-03 11:22:00,
2013-06-03 01:32:00,54.0,42.0,-100.00,NNE,25,10.0,18.0,64,0.00,,,0.00,0.000000,,2013-06-03 11:32:00,
2013-06-03 02:02:00,55.0,29.0,-100.00,North,351,5.0,18.0,37,0.00,,,0.00,0.000000,,2013-06-03 12:02:00,
2013-06-03 02:12:00,55.0,29.0,-100.00,North,351,5.0,18.0,37,0.00,,,0.00,0.000000,,2013-06-03 12:12:00,
2013-06-03 02:22:00,55.0,29.0,-100.00,North,351,5.0,18.0,37,0.00,,,0.00,0.000000,,2013-06-03 12:22:00,
2013-06-03 02:32:00,55.0,29.0,-100.00,North,351,5.0,18.0,37,0.00,,,0.00,0.000000,,2013-06-03 12:32:00,
2013-06-03 02:52:00,55.0,26.0,-100.00,NNW,336,5.0,11.0,32,0.00,,,0.00,0.000000,,2013-06-03 12:52:00,
2013-06-03 03:02:00,55.0,26.0,-100.00,NNW,336,5.0,11.0,32,0.00,,,0.00,0.000000,,2013-06-03 13:02:00,
2013-06-03 03:12:00,55.0,26.0,-100.00,NNW,336,5.0,11.0,32,0.00,,,0.00,0.000000,,2013-06-03 13:12:00,
2013-06-03 03:22:00,55.0,26.0,-100.00,NNW,336,5.0,11.0,32,0.00,,,0.00,0.000000,,2013-06-03 13:22:00,
2013-06-03 03:32:00,55.0,26.0,-100.00,NNW,336,5.0,11.0,32,0.00,,,0.00,0.000000,,2013-06-03 13:32:00,
2013-06-03 03:52:00,54.0,22.0,-100.00,NNW,330,5.0,11.0,28,0.00,,,0.00,0.000000,,2013-06-03 13:52:00,
2013-06-03 04:02:00,54.0,22.0,-100.00,NNW,330,5.0,11.0,28,0.00,,,0.00,0.000000,,2013-06-03 14:02:00,
2013-06-03 04:12:00,54.0,22.0,-100.00,NNW,330,5.0,11.0,28,0.00,,,0.00,0.000000,,2013-06-03 14:12:00,
2013-06-03 04:22:00,54.0,22.0,-100.00,NNW,330,5.0,11.0,28,0.00,,,0.00,0.000000,,2013-06-03 14:22:00,
2013-06-03 04:32:00,54.0,22.0,-100.00,NNW,330,5.0,11.0,28,0.00,,,0.00,0.000000,,2013-06-03 14:32:00,
2013-06-03 04:52:00,53.0,22.0,-100.00,NNW,337,6.0,11.0,29,0.00,,,0.00,0.000000,,2013-06-03 14:52:00,
2013-06-03 05:02:00,53.0,22.0,-100.00,NNW,337,6.0,11.0,29,0.00,,,0.00,0.000000,,2013-06-03 15:02:00,
2013-06-03 05:12:00,53.0,22.0,-100.00,NNW,337,6.0,11.0,29,0.00,,,0.00,0.000000,,2013-06-03 15:12:00,
2013-06-03 05:22:00,53.0,22.0,-100.00,NNW,337,6.0,11.0,29,0.00,,,0.00,0.000000,,2013-06-03 15:22:00,
2013-06-03 05:33:00,53.0,22.0,-100.00,NNW,337,6.0,11.0,29,0.00,,,0.00,0.000000,,2013-06-03 15:33:00,
2013-06-03 05:53:00,52.0,27.0,-100.00,NW,320,6.0,10.0,37,0.00,,,0.00,0.000000,,2013-06-03 15:53:00,
2013-06-03 06:03:00,52.0,27.0,-100.00,NW,320,6.0,10.0,37,0.00,,,0.00,0.000000,,2013-06-03 16:03:00,
2013-06-03 06:12:00,52.0,27.0,-100.00,NW,320,6.0,10.0,37,0.00,,,0.00,0.000000,,2013-06-03 16:12:00,
2013-06-03 06:23:00,52.0,27.0,-100.00,NW,320,6.0,10.0,37,0.00,,,0.00,0.000000,,2013-06-03 16:23:00,
2013-06-03 06:32:00,52.0,27.0,-100.00,NW,320,6.0,10.0,37,0.00,,,0.00,0.000000,,2013-06-03 16:32:00,
2013-06-03 07:02:00,61.0,29.0,-100.00,NNW,334,4.0,10.0,29,0.00,,,0.00,65.000000,,2013-06-03 17:02:00,
2013-06-03 07:12:00,61.0,29.0,-100.00,NNW,334,4.0,10.0,29,0.00,,,0.00,65.000000,,2013-06-03 17:12:00,
2013-06-03 07:22:00,61.0,29.0,-100.00,NNW,334,4.0,10.0,29,0.00,,,0.00,65.000000,,2013-06-03 17:22:00,
2013-06-03 07:33:00,61.0,29.0,-100.00,NNW,334,4.0,10.0,29,0.00,,,0.00,65.000000,,2013-06-03 17:33:00,
2013-06-03 07:52:00,71.0,35.0,-100.00,NNE,33,6.0,10.0,27,0.00,,,0.00,377.000000,,2013-06-03 17:52:00,
2013-06-03 08:02:00,71.0,35.0,-100.00,NNE,33,6.0,10.0,27,0.00,,,0.00,377.000000,,2013-06-03 18:02:00,
2013-06-03 08:12:00,71.0,35.0,-100.00,NNE,33,6.0,10.0,27,0.00,,,0.00,377.000000,,2013-06-03 18:12:00,
2013-06-03 08:22:00,71.0,35.0,-100.00,NNE,33,6.0,10.0,27,0.00,,,0.00,377.000000,,2013-06-03 18:22:00,
2013-06-03 08:32:00,71.0,35.0,-100.00,NNE,33,6.0,10.0,27,0.00,,,0.00,377.000000,,2013-06-03 18:32:00,
2013-06-03 09:03:00,74.0,43.0,-100.00,NE,37,7.0,12.0,33,0.00,,,0.00,683.000000,,2013-06-03 19:03:00,
2013-06-03 09:12:00,74.0,43.0,-100.00,NE,37,7.0,12.0,33,0.00,,,0.00,683.000000,,2013-06-03 19:12:00,
2013-06-03 09:22:00,74.0,43.0,-100.00,NE,37,7.0,12.0,33,0.00,,,0.00,683.000000,,2013-06-03 19:22:00,
2013-06-03 09:32:00,74.0,43.0,-100.00,NE,37,7.0,12.0,33,0.00,,,0.00,683.000000,,2013-06-03 19:32:00,
2013-06-03 09:52:00,77.0,44.0,-100.00,NE,54,6.0,12.0,31,0.00,,,0.00,947.000000,,2013-06-03 19:52:00,
2013-06-03 10:02:00,77.0,44.0,-100.00,NE,54,6.0,12.0,31,0.00,,,0.00,947.000000,,2013-06-03 20:02:00,
2013-06-03 10:12:00,77.0,44.0,-100.00,NE,54,6.0,12.0,31,0.00,,,0.00,947.000000,,2013-06-03 20:12:00,
2013-06-03 10:22:00,77.0,44.0,-100.00,NE,54,6.0,12.0,31,0.00,,,0.00,947.000000,,2013-06-03 20:22:00,
2013-06-03 10:32:00,77.0,44.0,-100.00,NE,54,6.0,12.0,31,0.00,,,0.00,947.000000,,2013-06-03 20:32:00,
2013-06-03 10:52:00,76.0,51.0,-100.00,ENE,68,7.0,12.0,41,0.00,,,0.00,1161.000000,,2013-06-03 20:52:00,
2013-06-03 11:02:00,76.0,51.0,-100.00,ENE,68,7.0,12.0,41,0.00,,,0.00,1161.000000,,2013-06-03 21:02:00,
2013-06-03 11:12:00,76.0,51.0,-100.00,ENE,68,7.0,12.0,41,0.00,,,0.00,1161.000000,,2013-06-03 21:12:00,
2013-06-03 11:22:00,76.0,51.0,-100.00,ENE,68,7.0,12.0,41,0.00,,,0.00,1161.000000,,2013-06-03 21:22:00,
2013-06-03 11:32:00,76.0,51.0,-100.00,ENE,68,7.0,12.0,41,0.00,,,0.00,1161.000000,,2013-06-03 21:32:00,
2013-06-03 11:53:00,77.0,49.0,-100.00,NE,52,7.0,15.0,38,0.00,,,0.00,1298.000000,,2013-06-03 21:53:00,
2013-06-03 12:03:00,77.0,49.0,-100.00,NE,52,7.0,15.0,38,0.00,,,0.00,1298.000000,,2013-06-03 22:03:00,
2013-06-03 12:12:00,77.0,49.0,-100.00,NE,52,7.0,15.0,38,0.00,,,0.00,1298.000000,,2013-06-03 22:12:00,
2013-06-03 12:22:00,77.0,49.0,-100.00,NE,52,7.0,15.0,38,0.00,,,0.00,1298.000000,,2013-06-03 22:22:00,
2013-06-03 12:32:00,77.0,49.0,-100.00,NE,52,7.0,15.0,38,0.00,,,0.00,1298.000000,,2013-06-03 22:32:00,
2013-06-03 12:53:00,76.0,52.0,-100.00,NE,39,7.0,17.0,43,0.00,,,0.00,1344.000000,,2013-06-03 22:53:00,
2013-06-03 13:02:00,76.0,52.0,-100.00,NE,39,7.0,17.0,43,0.00,,,0.00,1344.000000,,2013-06-03 23:02:00,
2013-06-03 13:12:00,76.0,52.0,-100.00,NE,39,7.0,17.0,43,0.00,,,0.00,1344.000000,,2013-06-03 23:12:00,
2013-06-03 13:22:00,76.0,52.0,-100.00,NE,39,7.0,17.0,43,0.00,,,0.00,1344.000000,,2013-06-03 23:22:00,
2013-06-03 13:32:00,76.0,52.0,-100.00,NE,39,7.0,17.0,43,0.00,,,0.00,1344.000000,,2013-06-03 23:32:00,
2013-06-03 14:02:00,77.0,51.0,-100.00,NE,46,9.0,15.0,41,0.00,,,0.00,1322.000000,,2013-06-04 00:02:00,
2013-06-03 14:12:00,77.0,51.0,-100.00,NE,46,9.0,15.0,41,0.00,,,0.00,1322.000000,,2013-06-04 00:12:00,
2013-06-03 14:22:00,77.0,51.0,-100.00,NE,46,9.0,15.0,41,0.00,,,0.00,1322.000000,,2013-06-04 00:22:00,
2013-06-03 14:32:00,77.0,51.0,-100.00,NE,46,9.0,15.0,41,0.00,,,0.00,1322.000000,,2013-06-04 00:32:00,
2013-06-03 14:52:00,77.0,55.0,-100.00,NNE,32,10.0,16.0,47,0.00,,,0.00,1230.000000,,2013-06-04 00:52:00,
2013-06-03 15:02:00,77.0,55.0,-100.00,NNE,32,10.0,16.0,47,0.00,,,0.00,1230.000000,,2013-06-04 01:02:00,
2013-06-03 15:12:00,77.0,55.0,-100.00,NNE,32,10.0,16.0,47,0.00,,,0.00,1230.000000,,2013-06-04 01:12:00,
2013-06-03 15:22:00,77.0,55.0,-100.00,NNE,32,10.0,16.0,47,0.00,,,0.00,1230.000000,,2013-06-04 01:22:00,
2013-06-03 15:32:00,77.0,55.0,-100.00,NNE,32,10.0,16.0,47,0.00,,,0.00,1230.000000,,2013-06-04 01:32:00,
2013-06-03 15:52:00,77.0,54.0,-100.00,ENE,76,6.0,15.0,45,0.00,,,0.00,1047.000000,,2013-06-04 01:52:00,
2013-06-03 16:02:00,77.0,54.0,-100.00,ENE,76,6.0,15.0,45,0.00,,,0.00,1047.000000,,2013-06-04 02:02:00,
2013-06-03 16:12:00,77.0,54.0,-100.00,ENE,76,6.0,15.0,45,0.00,,,0.00,1047.000000,,2013-06-04 02:12:00,
2013-06-03 16:21:00,77.0,54.0,-100.00,ENE,76,6.0,15.0,45,0.00,,,0.00,1047.000000,,2013-06-04 02:21:00,
2013-06-03 16:32:00,77.0,54.0,-100.00,ENE,76,6.0,15.0,45,0.00,,,0.00,1047.000000,,2013-06-04 02:32:00,
2013-06-03 16:52:00,75.0,56.0,-100.00,NE,39,7.0,14.0,51,0.00,,,0.00,800.000000,,2013-06-04 02:52:00,
2013-06-03 17:02:00,75.0,56.0,-100.00,NE,39,7.0,14.0,51,0.00,,,0.00,800.000000,,2013-06-04 03:02:00,
2013-06-03 17:12:00,75.0,56.0,-100.00,NE,39,7.0,14.0,51,0.00,,,0.00,800.000000,,2013-06-04 03:12:00,
2013-06-03 17:22:00,75.0,56.0,-100.00,NE,39,7.0,14.0,51,0.00,,,0.00,800.000000,,2013-06-04 03:22:00,
2013-06-03 17:32:00,75.0,56.0,-100.00,NE,39,7.0,14.0,51,0.00,,,0.00,800.000000,,2013-06-04 03:32:00,
2013-06-03 17:53:00,76.0,41.0,-100.00,NE,44,3.0,13.0,29,0.00,,,0.00,507.000000,,2013-06-04 03:53:00,
2013-06-03 18:03:00,76.0,41.0,-100.00,NE,44,3.0,13.0,29,0.00,,,0.00,507.000000,,2013-06-04 04:03:00,
2013-06-03 18:13:00,76.0,41.0,-100.00,NE,44,3.0,13.0,29,0.00,,,0.00,507.000000,,2013-06-04 04:13:00,
2013-06-03 18:23:00,76.0,41.0,-100.00,NE,44,3.0,13.0,29,0.00,,,0.00,507.000000,,2013-06-04 04:23:00,
2013-06-03 18:33:00,76.0,41.0,-100.00,NE,44,3.0,13.0,29,0.00,,,0.00,507.000000,,2013-06-04 04:33:00,
2013-06-03 18:53:00,65.0,20.0,-100.00,North,8,3.0,10.0,18,0.00,,,0.00,162.000000,,2013-06-04 04:53:00,
2013-06-03 19:02:00,65.0,20.0,-100.00,North,8,3.0,10.0,18,0.00,,,0.00,162.000000,,2013-06-04 05:02:00,
2013-06-03 19:12:00,65.0,20.0,-100.00,North,8,3.0,10.0,18,0.00,,,0.00,162.000000,,2013-06-04 05:12:00,
2013-06-03 19:22:00,65.0,20.0,-100.00,North,8,3.0,10.0,18,0.00,,,0.00,162.000000,,2013-06-04 05:22:00,
2013-06-03 19:32:00,65.0,20.0,-100.00,North,8,3.0,10.0,18,0.00,,,0.00,162.000000,,2013-06-04 05:32:00,
2013-06-03 19:52:00,60.0,23.0,-100.00,North,350,4.0,6.0,24,0.00,,,0.00,4.000000,,2013-06-04 05:52:00,
2013-06-03 20:02:00,60.0,23.0,-100.00,North,350,4.0,6.0,24,0.00,,,0.00,4.000000,,2013-06-04 06:02:00,
2013-06-03 20:12:00,60.0,23.0,-100.00,North,350,4.0,6.0,24,0.00,,,0.00,4.000000,,2013-06-04 06:12:00,
2013-06-03 20:22:00,60.0,23.0,-100.00,North,350,4.0,6.0,24,0.00,,,0.00,4.000000,,2013-06-04 06:22:00,
2013-06-03 20:32:00,60.0,23.0,-100.00,North,350,4.0,6.0,24,0.00,,,0.00,4.000000,,2013-06-04 06:32:00,
2013-06-03 20:52:00,54.0,26.0,-100.00,NNW,327,5.0,8.0,34,0.00,,,0.00,0.000000,,2013-06-04 06:52:00,
2013-06-03 21:02:00,54.0,26.0,-100.00,NNW,327,5.0,8.0,34,0.00,,,0.00,0.000000,,2013-06-04 07:02:00,
2013-06-03 21:12:00,54.0,26.0,-100.00,NNW,327,5.0,8.0,34,0.00,,,0.00,0.000000,,2013-06-04 07:12:00,
2013-06-03 21:22:00,54.0,26.0,-100.00,NNW,327,5.0,8.0,34,0.00,,,0.00,0.000000,,2013-06-04 07:22:00,
2013-06-03 21:32:00,54.0,26.0,-100.00,NNW,327,5.0,8.0,34,0.00,,,0.00,0.000000,,2013-06-04 07:32:00,
2013-06-03 22:02:00,53.0,27.0,-100.00,NNW,327,5.0,9.0,37,0.00,,,0.00,0.000000,,2013-06-04 08:02:00,
2013-06-03 22:12:00,53.0,27.0,-100.00,NNW,327,5.0,9.0,37,0.00,,,0.00,0.000000,,2013-06-04 08:12:00,
2013-06-03 22:22:00,53.0,27.0,-100.00,NNW,327,5.0,9.0,37,0.00,,,0.00,0.000000,,2013-06-04 08:22:00,
2013-06-03 22:32:00,53.0,27.0,-100.00,NNW,327,5.0,9.0,37,0.00,,,0.00,0.000000,,2013-06-04 08:32:00,
2013-06-03 22:52:00,56.0,28.0,-100.00,NW,325,5.0,11.0,34,0.00,,,0.00,0.000000,,2013-06-04 08:52:00,
2013-06-03 23:02:00,56.0,28.0,-100.00,NW,325,5.0,11.0,34,0.00,,,0.00,0.000000,,2013-06-04 09:02:00,
2013-06-03 23:12:00,56.0,28.0,-100.00,NW,325,5.0,11.0,34,0.00,,,0.00,0.000000,,2013-06-04 09:12:00,
2013-06-03 23:22:00,56.0,28.0,-100.00,NW,325,5.0,11.0,34,0.00,,,0.00,0.000000,,2013-06-04 09:22:00,
2013-06-03 23:32:00,56.0,28.0,-100.00,NW,325,5.0,11.0,34,0.00,,,0.00,0.000000,,2013-06-04 09:32:00,